Cozumel (Civ/Mil, Mexico

9:03 AM on February 26, 2017 (GMT +0000)
Cozumel International

Weather History for MMCZ - March, 2014

Change the Weather History Date:

Sunday, March 30, 2014

  Actual Average Record
Temperature  
Mean Temperature 72 °F -  
Max Temperature 82 °F 84 °F 89 °F (1999)
Min Temperature 62 °F 73 °F 55 °F (2013)
Cooling Degree Days 7    
Growing Degree Days 22 (Base 50)    
Moisture  
Dew Point 70 °F    
Average Humidity 88    
Maximum Humidity 100    
Minimum Humidity 65    
Precipitation  
Precipitation 0.00 in - - ()
Sea Level Pressure  
Sea Level Pressure 30.03 in    
Wind  
Wind Speed 3 mph ()    
Max Wind Speed 13 mph    
Max Gust Speed -    
Visibility 7.1 miles    
Events      
Averages and records for this station are not official NWS values.
T = Trace of Precipitation, MM = Missing Value Source: Averaged Metar Reports

Daily Weather History Graph

Daily Weather History Graph

Search for Another Location

Airport or City:

Trip Planner

Search our weather history database for the weather conditions in past years. The results will help you decide how hot, cold, wet, or windy it might be!

Date:

Astronomy

Mar. 30, 2014 Rise Set
Actual Time 5:42 AM CST 6:01 PM CST
Civil Twilight 5:20 AM CST 6:23 PM CST
Nautical Twilight 4:54 AM CST 6:49 PM CST
Astronomical Twilight 4:28 AM CST 7:15 PM CST
Moon 5:28 AM CST (3/30) 6:09 PM CST (3/30)
Length of Visible Light 13h 03m
Length of Day
12h 18m
Waning Crescent, 0% of the Moon is Illuminated
Mar 30
Waning Crescent
Mar 30
New
Apr 7
First Quarter
Apr 15
Full
Apr 22
Last Quarter

Hourly Weather History & Observations

Time (CST) Temp. Heat Index Dew Point Humidity Pressure Visibility Wind Dir Wind Speed Gust Speed Precip Events Conditions
12:40 AM 66.2 °F - 66.2 °F 100% 29.99 in 7.0 mi Calm Calm - N/A   Clear
1:40 AM 66.2 °F - 66.2 °F 100% 29.98 in 7.0 mi Calm Calm - N/A   Clear
2:57 AM 64.4 °F - 64.4 °F 100% 29.99 in 7.0 mi Calm Calm - N/A   Clear
3:49 AM 64.4 °F - 64.4 °F 100% 29.97 in 7.0 mi Calm Calm - N/A   Clear
4:52 AM 62.6 °F - 62.6 °F 100% 29.99 in 7.0 mi Calm Calm - N/A   Clear
5:43 AM 66.2 °F - 66.2 °F 100% 30.01 in 7.0 mi Calm Calm - N/A   Partly Cloudy
6:41 AM 71.6 °F - 71.6 °F 100% 30.04 in 8.0 mi Calm Calm - N/A   Scattered Clouds
7:40 AM 75.2 °F - 73.4 °F 94% 30.06 in 7.0 mi NNE 4.6 mph - N/A   Scattered Clouds
8:42 AM 77.0 °F - 73.4 °F 89% 30.09 in 7.0 mi North 8.1 mph - N/A   Mostly Cloudy
9:40 AM 78.8 °F - 73.4 °F 83% 30.08 in 7.0 mi North 6.9 mph - N/A   Mostly Cloudy
10:40 AM 80.6 °F 84.6 °F 71.6 °F 74% 30.07 in 7.0 mi NNW 6.9 mph - N/A   Mostly Cloudy
11:41 AM 80.6 °F 83.2 °F 68.0 °F 65% 30.02 in 7.0 mi NNW 8.1 mph - N/A   Mostly Cloudy
12:43 PM 80.6 °F 83.2 °F 68.0 °F 65% 30.03 in 7.0 mi NW 4.6 mph - N/A   Mostly Cloudy
1:40 PM 82.4 °F 87.2 °F 71.6 °F 70% 30.01 in 7.0 mi SE 3.5 mph - N/A   Mostly Cloudy
2:45 PM 80.6 °F 84.6 °F 71.6 °F 74% 30.02 in 8.0 mi South 3.5 mph - N/A   Mostly Cloudy
3:54 PM 78.8 °F - 71.6 °F 78% 29.97 in 8.0 mi ENE 12.7 mph - N/A   Mostly Cloudy
4:52 PM 77.0 °F - 71.6 °F 83% 29.99 in 7.0 mi NE 5.8 mph - N/A   Mostly Cloudy
5:52 PM 75.2 °F - 73.4 °F 94% 29.99 in 7.0 mi ENE 12.7 mph - N/A   Mostly Cloudy
6:53 PM 75.2 °F - 73.4 °F 94% 30.03 in 7.0 mi NE 11.5 mph - N/A   Mostly Cloudy
7:45 PM 75.2 °F - 71.6 °F 89% 30.03 in 7.0 mi ENE 6.9 mph - N/A   Mostly Cloudy
8:49 PM 75.2 °F - 71.6 °F 89% 30.09 in 7.0 mi ENE 10.4 mph - N/A   Scattered Clouds
10:00 PM 73.4 °F - 71.6 °F 94% 30.06 in 7.0 mi East 9.2 mph - N/A   Scattered Clouds
10:52 PM 75.2 °F - 71.6 °F 89% 30.07 in 7.0 mi ENE 8.1 mph - N/A   Scattered Clouds
11:44 PM 73.4 °F - 71.6 °F 94% 30.03 in 7.0 mi East 8.1 mph - N/A   Scattered Clouds